Location: Barcelona
(41.3829°N, 2.1774°E)
Time: 20:29:38
(UTC+00:00)

ISS - Pass Details

Date: 11 July 2025
Orbit: 413 x 417 km, 51.6° (Epoch: 13 July)

Event Time Altitude Azimuth Distance (km) Brightness Sun altitude
Rises 01:35:59 0° 308° (NW) 2,358 0.2 -22.5°
Reaches altitude 10° 01:38:08 10° 314° (NW) 1,493 -0.8 -22.3°
Maximum altitude 01:41:23 48° 30° (NNE) 556 -2.8 -22.1°
Drops below altitude 10° 01:44:38 10° 106° (ESE) 1,488 -0.9 -21.8°
Sets 01:46:46 0° 113° (ESE) 2,349 0.1 -21.6°
